AirNav   Duncan Aviation - Near you to keep you 
flying
 
 795 users online  

KNZY North Island Naval Air Station (Halsey Field)
San Diego, California, USA

GOING TO SAN DIEGO?


FAA INFORMATION EFFECTIVE 15 JULY 2021

Location

FAA Identifier: NZY
Lat/Long: 32-41-53.5060N 117-12-47.1960W
32-41.891767N 117-12.786600W
32.6981961,-117.2131100
(estimated)
Elevation: 25.9 ft. / 7.9 m (surveyed)
Variation: 11E (2020)
From city: 3 miles SW of SAN DIEGO, CA
Time zone: UTC -7 (UTC -8 during Standard Time)
Zip code: 92118

Airport Operations

Airport use: Private use. Permission required prior to landing
Activation date: 05/1941
Control tower: yes
ARTCC: LOS ANGELES CENTER
FSS: SAN DIEGO FLIGHT SERVICE STATION
NOTAMs facility: NZY (NOTAM-D service available)
Attendance: ALL
1430Z++ MON- 0600Z++ SAT; 1600Z++ SAT- 0600Z++ SUN; 1600Z++ SUN- 0600Z++ MON. CLSD 0200Z++ DAY PRIOR TO 1430Z++ DAY FOLLOWING ALL FEDERAL HOLIDAYS. SEE FLIP AP/1 SUPPLEMENTARY ARPT INFO.
Segmented circle: no
Lights: AVBL ONLY DURING HRS OF OPERATION.
Beacon: white-white-green (lighted military airport)
Operates sunset to sunrise.

Airport Communications

ATIS: 317.8
NAVY NORTH ISLAND GROUND: 118.0 360.675 [1430Z++ MON- 0600Z++ SAT; 1600Z++ SAT- 0600Z++ SUN; 1600Z++ SUN- 0600Z++ MON. CLSD 0200Z++ DAY PRIOR TO 1430Z++ DAY FOLLOWING ALL FEDERAL HOLIDAYS. SEE FLIP AP/1 SUPPLEMENTARY ARPT INFO.]
NAVY NORTH ISLAND TOWER: 135.1 336.4 340.2 [1430Z++ MON- 0600Z++ SAT; 1600Z++ SAT- 0600Z++ SUN; 1600Z++ SUN- 0600Z++ MON. CLSD 0200Z++ DAY PRIOR TO 1430Z++ DAY FOLLOWING ALL FEDERAL HOLIDAYS. SEE FLIP AP/1 SUPPLEMENTARY ARPT INFO.]
SOCAL APPROACH: 125.15
SOCAL DEPARTURE: 125.15
CLEARANCE DELIVERY: 128.4 288.25
BASE OPS: 355.5
CHASR STAR: 124.35
CLASS B: 125.15 ;110-224 SAN 17,000 FT& BLW
EMERG: 121.5 243.0
PMSV METRO: 342.36
RADAR: 127.7 134.1 289.8X 313.2X 350.8X 382.0X 385.5X
WX ASOS at SAN (2.4 nm NE): PHONE 619-296-8934
WX ASOS at MYF (8 nm NE): 126.9 (858-576-4337)
WX ASOS at NRS (9 nm SE): PHONE 619-437-9890
WX ASOS at SDM (14 nm SE): 132.35 (619-661-8297)
WX AWOS-3P at SEE (14 nm NE): 125.45 (619-449-1228)

Nearby radio navigation aids

VOR radial/distance  VOR name  Freq  Var
MZBr158/5.1MISSION BAY VORTAC117.8015E
PGYr280/12.9POGGI VORTAC116.4514E
TIJr294/16.2TIJUANA VOR/DME116.5012E
OCNr147/34.1OCEANSIDE VORTAC115.3015E

Airport Services

Airframe service: NONE
Powerplant service: NONE
Bottled oxygen: NONE
Bulk oxygen: NONE

Runway Information

Runway 18/36

Dimensions: 8000 x 200 ft. / 2438 x 61 m
Surface: PEM
Weight bearing capacity: 
PCN 59 /R/B/W/T
Runway edge lights: high intensity
RUNWAY 18  RUNWAY 36
Latitude: 32-42.602083N32-41.330550N
Longitude: 117-12.700983W117-13.117183W
Elevation: 18.9 ft.9.9 ft.
Traffic pattern: leftleft
Runway heading: 184 magnetic, 195 true004 magnetic, 015 true
Visual slope indicator: 4-light PAPI on left (3.00 degrees glide path)4-light PAPI on left (3.00 degrees glide path)
Approach lights: SALSF
Runway end identifier lights: yesyes
Centerline lights: yesyes
Touchdown point: yes, no lightsyes, no lights

Runway 11/29

Dimensions: 7500 x 200 ft. / 2286 x 61 m
Surface: PEM
Weight bearing capacity: 
PCN 59 /R/B/W/T
Runway edge lights: high intensity
RUNWAY 11  RUNWAY 29
Latitude: 32-42.139700N32-41.484833N
Longitude: 117-13.276517W117-12.035433W
Elevation: 19.1 ft.25.9 ft.
Traffic pattern: leftleft
Runway heading: 110 magnetic, 121 true290 magnetic, 301 true
Visual slope indicator: 4-light PAPI on left (3.00 degrees glide path)
Approach lights: ALSF1: standard 2,400 foot high intensity approach lighting system with centerline sequenced flashers (category I)
Runway end identifier lights: yes
Centerline lights: yesyes
Touchdown point: yes, no lightsyes, no lights

Airport Ownership and Management from official FAA records

Ownership: U.S. Navy
Owner: US NAVY
OCEANOGRAPHIC OFC - CODE 3142
WASHINGTON, DC 20373
Manager: COMMANDING OFFICER
NAVAL AIR STA NORTH ISLAND
SAN DIEGO, CA 92135

Additional Remarks

E60-11 HOOK E28(B) (1500')
E60-18 HOOK E28(B) (1850')
E60-36 HOOK E28(B) (1701')
E60-29 HOOK E28(B) (2601')
FUEL: EXP REFUL DELAYS. 100LL, J5.
FLUID: SP PRESAIR.
OIL: O-128-148-156-RSTD OIL ANALYSIS AVBL, PRIOR COORD RQR.
TRAN ALERT: OPR 1400-0600Z WKD AND 1600-0600Z WKEND; (DT- 1300-0500Z WKD AND 1500-0500Z WKEND). NO TRAN MAINT/LTD SVC. LOX NOT AVAILABLE.
TRAN ALERT: TRAN AIRCREW MUST REMAIN WITH ACFT TO PROVIDE TECHNICAL DRCT/ASSISTANCE IN SVCG. AIR TRML/TRAN LINE COORD ALL REFUL REQ. ARR ACFT PASS SVC REQ TO LINEMAN. ALL TRAN PILOTS CK IN WITH ODO, BASE OPS BLDG 516, UPON ARR.
JASU: 2(GTC-85)(NC-8)
A-GEAR: SHORT-FLD A-G RWY 29 NML DE-RIGGED. LONG-FLD A-G RWY 36 NML DE-RIGGED.
NS ABTMT: STRICT COMPLIANCE RQR.
CAUTION: BIRD HAZ MAY-OCT, PARTICULARLY AT DEP END RWY 29.
CSTMS/AG/IMG: CSTMS AVBL WITH 2 HR NTC 1600-0100Z++ MON-SAT. MIN 4 HR NTC RQR 0100-1600Z++.
RADAR: SEE TERMINAL FLIP FOR RADAR MINIMA.
LOC: 18, 29
CLSD 0600-1600Z++ SAT-SUN, 0600-1430Z++ MON, CLSD 0200Z++ DAY PRIOR TO 1430Z++ DAY FLW ALL FEDERAL HOL. SEE FLIP AP/1 SUPPLEMENTARY ARPT RMK.
RSTD: CALL AMGR DSN 735-8243, C619-545-8243, 619-778-2074 FOR PPR, 72 HR NOTICE. LCL FLT DUR RON PROH.
CAUTION: TWY DELTA AND TWY FOXTROT NOT LIT FOR NIGHT OPERATIONS.
CAUTION: RWY 11/29 SFC AREA BTN THE RWY EDGE LNS AND REDLS, APRXLY 50 FT ON EITHER SIDE, IS CRACKED AND HAS LOOSE GRVL. WRY 11/29 EDGE LGTS LOCATED 50 FT OUTBOARD OF RUNWAY EDGE LNS, AND ARE NOT WI 10 FT OF THE MKD RWY EDGE. PILOTS SHOULD EXERCISE CAUTION TRANSITING THE AREA BETWEEN THE RWY EDGE LNS AND REDLS.
CAUTION: RWY 18/36 RWY DIST MKRS LESS THAN THE REQD 50 FT OFF THE RWY EDGE.
CAUTION: TWY L EDGE LGTS NOT WI 10 FT OF MKD TWY EDGE.
FOR CD WHEN ATCT CLSD CTC SOCAL APCH AT 800-448-3724.
MISC: VIP/LOGISTIC FLT CTC BASE OPS PRIOR TO LDG.
TFC PAT: USE MAX EXTERIOR LGT BLW 10,000' WITHIN 10 NM. ALL TRAN ACFT LTD TO FULL STOP ONLY. TOUCH-AND-GO/LO APCH NOT AVBL. TRAN ACFT SECTION APCH NOT AUTH. REDUCED RWY SEPARATION STD IN EFF USN/USMC ACFT.
CAUTION: EXTV VFR COPTER OPR SFC-500' VCNTY ARPT AND SFC-2000' 8 NM SE. LGT CIV ACFT CLIMB/DESCEND THRU RY 29 FINAL APCH CRS BYD 6 DME ENTER/DEP SAN DIEGO CLASS B AIRSPACE VFR CORRIDOR. AVOID CNTRLINE LGT DUR RY 29 OR RY 36 ARRESTMENT TO PREVENT TAILHOOK BOUNCE. HVY VEH TFC CROSS TWY L AND TWY A.

Instrument Procedures

NOTE: All procedures below are presented as PDF files. If you need a reader for these files, you should download the free Adobe Reader.

NOT FOR NAVIGATION. Please procure official charts for flight.
FAA instrument procedures published for use from 15 July 2021 at 0901Z to 12 August 2021 at 0900z.

 
STARs - Standard Terminal Arrivals
BARET FIVE **CHANGED**   2 pages: [1] [2] (473KB)
CHASR TWO (RNAV) **CHANGED**   download (214KB)
 
IAPs - Instrument Approach Procedures
RNAV (GPS) RWY 36   download (132KB)
LOC/DME-A   download (165KB)
LOC/DME-B   download (141KB)
VOR/DME RWY 29   download (133KB)
HI-TACAN Z RWY 29   download (133KB)
HI-TACAN Z RWY 36   download (123KB)
TACAN RWY 29   download (152KB)
TACAN RWY 36   download (136KB)
HOTEL VISUAL RWY 29   download (113KB)
Radar Approach Procedures available   download (173KB)
 
NASNI NINE (OBSTACLE)   download (157KB)
NOTE: Special Take-Off Minimums/Departure Procedures apply   download (363KB)

Other nearby airports with instrument procedures:

KSAN - San Diego International Airport (2 nm NE)
KMYF - Montgomery-Gibbs Executive Airport (8 nm NE)
KNRS - Imperial Beach Naval Outlying Field (Ream Field) (9 nm SE)
KNKX - Miramar MCAS (Joe Foss Field) Airport (11 nm N)
KSDM - Brown Field Municipal Airport (14 nm SE)
KSEE - Gillespie Field Airport (14 nm NE)
 
Loc | Ops | Rwys | IFR | FBO | Links
Com | Nav | Svcs | Stats | Notes
Area around KNZY (North Island Naval Air Station (Halsey Field))
 
Road maps at: MapQuest Bing Google
 
Aerial photo
WARNING: Photo may not be current or correct
Aerial photo of KNZY (North Island Naval Air Station (Halsey Field))
Photo by Paul Wickstrom
Photo taken 13-Dec-2010
looking west.

Do you have a better or more recent aerial photo of North Island Naval Air Station (Halsey Field) that you would like to share? If so, please send us your photo.

 
Sectional chart

 
Airport diagram
Diagram of KNZY (North Island Naval Air Station (Halsey Field))
Download PDF
of official airport diagram from the FAA

 
Airport distance calculator
Flying to North Island Naval Air Station (Halsey Field)? Find the distance to fly.

From to KNZY

Sunrise and sunset
Times for 29-Jul-2021
 Local
(UTC-7)
 Zulu
(UTC)
Morning civil twilight05:3512:35
Sunrise06:0213:02
Sunset19:4902:49
Evening civil twilight20:1603:16

Current date and time
Zulu (UTC)  30-Jul-2021 04:48:51
Local (UTC-7)  29-Jul-2021 21:48:51
 
METAR
KNZY 300352Z 32008KT 10SM FEW009 SCT250 20/18 A2990 RMK AO2 SLP125 T02000178
KSAN 
3nm NE 
300423Z 31004KT 10SM BKN008 BKN250 21/18 A2993 RMK AO2 T02110178 $
KMYF 
8nm NE 
300353Z 29006KT 10SM CLR 21/17 A2991 RMK AO2 SLP123 T02110172
KNRS 
9nm SE 
300356Z 28005KT 9SM FEW010 FEW200 SCT250 21/21 A2991 RMK AO2 SLP128 T02060206 $
KNKX 
11nm N 
300355Z 27005KT 10SM CLR 21/17 A2991 RMK AO2 SLP122 T02060172
KSDM 
13nm SE 
300353Z AUTO 27006KT 10SM CLR 20/16 A2991 RMK AO2 SLP123 T02000156
KSEE 
14nm NE 
300435Z AUTO 29007KT 10SM CLR 23/16 A2991 RMK AO2
MMTJ 
16nm SE 
300341Z 25007KT 8SM SCT200 20/17 A2994 RMK 8/002 HZY
TAF
KNZY 2923/3023 31011KT 9999 FEW010 SCT060 SCT250 QNH2983INS TEMPO 3002/3007 30008KT BKN008 FM300700 32006KT 9999 BKN008 BKN250 QNH2985INS TEMPO 3008/3014 SCT008 BKN250 FM301600 31011KT 9999 FEW010 SCT070 SCT250 QNH2987INS T19/3012Z T25/3021Z FS30022
KSAN 
3nm NE 
300429Z 3004/3106 VRB04KT P6SM BKN008 FM301600 VRB04KT P6SM SCT010 FM302000 29011KT P6SM FEW010 SCT150 FM310300 31005KT P6SM SCT010 SCT150
KNKX 
11nm N 
3003/3103 VRB05KT 9999 SKC QNH2991INS BECMG 3007/3009 VRB05KT 9999 OVC007 QNH2991INS TEMPO 3009/3015 3200 BR VV003 FM301530 VRB05KT 9999 SCT010 SCT150 QNH2994INS BECMG 3019/3021 28010KT 9999 SCT150 QNH2994INS T17/3014Z T27/3021Z
MMTJ 
16nm SE 
300317Z 3006/3112 26005KT P6SM SCT012 TX26/3019Z TN18/3012Z TEMPO 3010/3014 4SM HZ BKN010 FM301800 33010KT P6SM SCT250 PROB40 3022/3002 6SM -RA BKN015 FM310600 26006KT P6SM SCT012 BECMG 3110/3111 5SM HZ BKN012
NOTAMs
Click for the latest NOTAMs
NOTAMs are issued by the DoD/FAA and will open in a separate window not controlled by AirNav.

 

 
 

Would you like to see your business listed on this page?

 If your business provides an interesting product or service to pilots, flight crews, aircraft, or users of the North Island Naval Air Station (Halsey Field), you should consider listing it here.  To start the listing process, click on the button below
 
Add a business
 

Other Pages about North Island Naval Air Station (Halsey Field)

www.nasni.navy.mil
 
Update a link
 
Copyright © AirNav, LLC. All rights reserved. Privacy Policy  Contact